Location: Dehesa de la Cepeda
(40.6574°N, 4.3013°W)
Time: 05:31:04
(UTC+00:00)

Courier 1B Rocket - Pass Details

Date: 03 August 2021
Orbit: 920 x 1202 km, 28.3° (Epoch: 19 September)

Event Time Altitude Azimuth Distance (km) Brightness Sun altitude
Exits shadow 03:03:58 27° 178° (S) 1,754 5.9 -21.0°
Drops below altitude 10° 03:08:59 10° 125° (SE) 2,647 7.3 -20.3°
Sets 03:11:55 0° 114° (ESE) 3,567 8.2 -20.0°
